FW0675 Weather Reports


Display with metric or nautical units.
time (UTC)temp
F
wind
direction
speed
MPH
gust
MPH
rain 1hr
in
rain 24hr
in
rain mn
in
humidity
%
barometer
mb
20260503220241 90 119 0.0 0.0 0.00 0.00 0.00 30 1009.4
20260503215742 91 348 0.0 0.0 0.00 0.00 0.00 32 1009.5
20260503212742 90 282 0.0 0.0 0.00 0.00 0.00 34 1009.8
20260503212241 89 219 0.0 0.0 0.00 0.00 0.00 35 1009.8
20260503211742 88 109 0.0 0.0 0.00 0.00 0.00 36 1009.8
20260503211240 88 105 0.0 0.0 0.00 0.00 0.00 36 1009.9
20260503210742 88 290 0.0 0.0 0.00 0.00 0.00 42 1010.1
20260503210241 87 302 0.0 0.0 0.00 0.00 0.00 36 1010.0
20260503205741 87 127 0.0 0.0 0.00 0.00 0.00 38 1010.0
20260503205240 87 306 0.0 0.0 0.00 0.00 0.00 39 1010.2
20260503204742 86 257 0.0 0.0 0.00 0.00 0.00 37 1010.1
20260503204240 86 162 0.0 0.0 0.00 0.00 0.00 41 1010.2
20260503203740 86 123 0.0 0.0 0.00 0.00 0.00 37 1010.3
20260503203242 86 41 0.0 0.0 0.00 0.00 0.00 42 1010.4
20260503202240 86 99 0.0 0.0 0.00 0.00 0.00 41 1010.4
20260503201741 86 281 0.0 0.0 0.00 0.00 0.00 36 1010.5
20260503201240 86 112 0.0 0.0 0.00 0.00 0.00 41 1010.5
20260503200742 86 83 0.0 0.0 0.00 0.00 0.00 39 1010.6
20260503200241 86 122 0.0 0.0 0.00 0.00 0.00 37 1010.7
20260503195740 87 121 0.0 0.0 0.00 0.00 0.00 40 1010.8
20260503195241 87 217 0.0 0.0 0.00 0.00 0.00 36 1010.9
20260503194742 87 204 0.0 0.0 0.00 0.00 0.00 36 1011.0
20260503194241 87 259 0.0 0.0 0.00 0.00 0.00 35 1011.0
20260503193742 87 59 0.0 0.0 0.00 0.00 0.00 38 1011.0
20260503193241 87 9 0.0 0.0 0.00 0.00 0.00 39 1010.9
20260503192742 87 23 0.0 0.0 0.00 0.00 0.00 40 1011.1
20260503191740 86 281 0.0 0.0 0.00 0.00 0.00 38 1011.2
20260503191240 86 266 0.0 0.0 0.00 0.00 0.00 38 1011.2
20260503190740 86 320 0.0 0.0 0.00 0.00 0.00 37 1011.3
20260503190241 86 91 0.0 0.0 0.00 0.00 0.00 39 1011.4
20260503185740 85 134 0.0 0.0 0.00 0.00 0.00 40 1011.4
20260503185242 86 267 0.0 0.0 0.00 0.00 0.00 38 1011.5
20260503184740 85 319 0.0 0.0 0.00 0.00 0.00 38 1011.5
20260503184240 85 113 0.0 0.0 0.00 0.00 0.00 43 1011.6
20260503183740 85 333 0.0 0.0 0.00 0.00 0.00 45 1011.6
20260503183240 84 217 0.0 0.0 0.00 0.00 0.00 46 1011.6
20260503182740 83 141 0.0 0.0 0.00 0.00 0.00 45 1011.7
20260503182240 83 165 0.0 0.0 0.00 0.00 0.00 45 1011.6
20260503181741 82 242 0.0 0.0 0.00 0.00 0.00 45 1011.8
20260503181241 81 281 0.0 0.0 0.00 0.00 0.00 45 1011.8
20260503180741 81 277 0.0 0.0 0.00 0.00 0.00 50 1011.8
20260503180240 80 295 0.0 0.0 0.00 0.00 0.00 51 1011.8
20260503175741 80 110 0.0 0.0 0.00 0.00 0.00 50 1011.8
20260503175242 79 92 0.0 0.0 0.00 0.00 0.00 50 1011.8
20260503174740 79 100 0.0 0.0 0.00 0.00 0.00 51 1011.8
20260503173238 77 12 0.0 0.0 0.00 0.00 0.00 57 1011.9
20260503172738 77 12 0.0 0.0 0.00 0.00 0.00 57 1012.0
20260503172241 76 306 0.0 0.0 0.00 0.00 0.00 56 1012.0
20260503170238 74 338 0.0 0.0 0.00 0.00 0.00 60 1012.0
20260503150729 61 335 0.0 0.0 0.00 0.00 0.00 80 1012.3
20260503140227 57 25 0.0 0.0 0.00 0.00 0.00 82 1012.2
20260503131224 60 39 0.0 0.0 0.00 0.00 0.00 77 1012.0
20260503130226 60 319 0.0 0.0 0.00 0.00 0.00 78 1011.9
20260503110720 55 93 0.0 0.0 0.00 0.00 0.00 86 1012.4
20260503110220 55 94 0.0 0.0 0.00 0.00 0.00 87 1012.4
20260503100218 55 94 0.0 0.0 0.00 0.00 0.00 86 1012.7
20260503090218 55 314 0.0 0.0 0.00 0.00 0.00 88 1012.7
20260503081217 57 314 0.0 0.0 0.00 0.00 0.00 86 1012.9
20260503080714 57 314 0.0 0.0 0.00 0.00 0.00 86 1012.8
20260503072710 59 314 0.0 0.0 0.00 0.00 0.00 83 1013.0
20260503072209 59 314 0.0 0.0 0.00 0.00 0.00 82 1013.0
20260503071706 60 314 0.0 0.0 0.00 0.00 0.00 81 1013.1
20260503071205 61 312 0.0 0.0 0.00 0.00 0.00 80 1013.0
20260503070707 61 233 0.0 0.0 0.00 0.00 0.00 79 1012.9
20260503070206 62 233 0.0 0.0 0.00 0.00 0.00 78 1012.9
20260503060205 58 306 0.0 0.0 0.00 0.00 0.00 86 1013.0
20260503054205 59 305 0.0 0.0 0.00 0.00 0.00 87 1013.1
20260503053703 59 292 0.0 0.0 0.00 0.00 0.00 87 1013.2
20260503053205 59 291 0.0 0.0 0.00 0.00 0.00 87 1013.2
20260503052704 59 291 0.0 0.0 0.00 0.00 0.00 87 1013.2
20260503052203 58 291 0.0 0.0 0.00 0.00 0.00 87 1013.3
20260503051702 58 291 0.0 0.0 0.00 0.00 0.00 87 1013.3
20260503051201 58 228 0.0 0.0 0.00 0.00 0.00 86 1013.3
20260503050701 58 229 0.0 0.0 0.00 0.00 0.00 86 1013.4
20260503045201 59 229 0.0 0.0 0.00 0.00 0.00 85 1013.4
20260503044701 59 228 0.0 0.0 0.00 0.00 0.00 85 1013.5
20260503044201 59 229 0.0 0.0 0.00 0.00 0.00 84 1013.5
20260503043701 60 228 0.0 0.0 0.00 0.00 0.00 85 1013.4
20260503043204 60 228 0.0 0.0 0.00 0.00 0.00 84 1013.4
20260503042202 60 228 0.0 0.0 0.00 0.00 0.00 84 1013.4
20260503041659 60 229 0.0 0.0 0.00 0.00 0.00 83 1013.4
20260503041159 60 229 0.0 0.0 0.00 0.00 0.00 84 1013.2
20260503040700 60 224 0.0 0.0 0.00 0.00 0.00 83 1013.2
20260503040159 60 224 0.0 0.0 0.00 0.00 0.00 83 1013.3
20260503035701 61 266 0.0 0.0 0.00 0.00 0.00 83 1013.2
20260503035159 61 298 0.0 0.0 0.00 0.00 0.00 82 1013.0
20260503034659 62 298 0.0 0.0 0.00 0.00 0.00 82 1013.1
20260503034157 62 298 0.0 0.0 0.00 0.00 0.00 82 1013.1
20260503033657 62 298 0.0 0.0 0.00 0.00 0.00 82 1013.1
20260503033156 62 298 0.0 0.0 0.00 0.00 0.00 81 1013.1
20260503032652 63 298 0.0 0.0 0.00 0.00 0.00 81 1013.1
20260503032155 63 313 0.0 0.0 0.00 0.00 0.00 81 1013.0
20260503031655 63 314 0.0 0.0 0.00 0.00 0.00 80 1013.0
20260503031152 64 313 0.0 0.0 0.00 0.00 0.00 80 1013.0
20260503030652 64 247 0.0 0.0 0.00 0.00 0.00 79 1013.0
20260503025652 65 247 0.0 0.0 0.00 0.00 0.00 78 1012.8
20260503025151 65 247 0.0 0.0 0.00 0.00 0.00 78 1012.8
20260503024149 66 297 0.0 0.0 0.00 0.00 0.00 78 1012.6
20260503023155 67 128 0.0 0.0 0.00 0.00 0.00 74 1012.3
20260503022653 68 217 0.0 0.0 0.00 0.00 0.00 72 1012.0
20260503022150 69 217 0.0 0.0 0.00 0.00 0.00 71 1011.8
20260503021649 69 217 0.0 0.0 0.00 0.00 0.00 70 1011.7
20260503021151 69 217 0.0 0.0 0.00 0.00 0.00 70 1011.6
20260503020648 69 217 0.0 0.0 0.00 0.00 0.00 69 1011.6
20260503020149 70 149 0.0 0.0 0.00 0.00 0.00 69 1011.6
20260503015148 71 271 0.0 0.0 0.00 0.00 0.00 67 1011.5
20260503014647 71 294 0.0 0.0 0.00 0.00 0.00 67 1011.4
20260503014149 71 294 0.0 0.0 0.00 0.00 0.00 68 1011.4
20260503013647 71 294 0.0 0.0 0.00 0.00 0.00 67 1011.5
20260503013148 72 294 0.0 0.0 0.00 0.00 0.00 66 1011.5
20260503012646 72 293 0.0 0.0 0.00 0.00 0.00 66 1011.6
20260503012145 72 293 0.0 0.0 0.00 0.00 0.00 64 1011.5
20260503011646 72 293 0.0 0.0 0.00 0.00 0.00 65 1011.5
20260503011145 72 278 0.0 0.0 0.00 0.00 0.00 65 1011.5
20260503010645 72 278 0.0 0.0 0.00 0.00 0.00 66 1011.5
20260503005645 72 284 0.0 0.0 0.00 0.00 0.00 66 1011.5
20260503005144 72 284 0.0 0.0 0.00 0.00 0.00 66 1011.5
20260503004648 72 136 0.0 0.0 0.00 0.00 0.00 64 1011.6
20260503004143 72 307 0.0 0.0 0.00 0.00 0.00 66 1011.7
20260503002645 72 288 0.0 0.0 0.00 0.00 0.00 64 1011.6
20260503002142 72 302 0.0 0.0 0.00 0.00 0.00 65 1011.6
20260503001640 72 298 0.0 0.0 0.00 0.00 0.00 63 1011.7
20260503001143 72 306 0.0 0.0 0.00 0.00 0.00 64 1011.7
20260503000640 72 302 0.0 0.0 0.00 0.00 0.00 63 1011.8
20260502235642 72 300 0.0 0.0 0.00 0.00 0.00 64 1011.9
20260502235141 72 295 0.0 0.0 0.00 0.00 0.00 63 1011.9
20260502234642 71 326 0.0 0.0 0.00 0.00 0.00 64 1012.0
20260502234139 71 318 0.0 0.0 0.00 0.00 0.00 63 1012.1
20260502232639 72 302 0.0 0.0 0.00 0.00 0.00 63 1012.3
20260502232138 72 150 0.0 0.0 0.00 0.00 0.00 64 1012.3
20260502231638 71 272 0.0 0.0 0.00 0.00 0.00 63 1012.4
20260502231138 71 333 0.0 0.0 0.00 0.00 0.00 65 1012.4
20260502230639 71 325 0.0 0.0 0.00 0.00 0.00 64 1012.4
20260502230138 71 295 0.0 0.0 0.00 0.00 0.00 64 1012.4
20260502225138 72 281 0.0 0.0 0.00 0.00 0.00 64 1012.6
20260502224640 72 269 0.0 0.0 0.00 0.00 0.00 63 1012.7
20260502224139 72 291 0.0 0.0 0.00 0.00 0.00 63 1012.8
20260502223638 72 297 0.0 0.0 0.00 0.00 0.00 64 1012.8
20260502222639 71 290 0.0 0.0 0.00 0.00 0.00 63 1013.1
20260502222138 71 304 0.0 0.0 0.00 0.00 0.00 64 1013.2
20260502221638 70 280 0.0 0.0 0.00 0.00 0.00 64 1013.3